Temp
18 20 20 20 21 21 20 19 19 19 19 19 20 20 20 20 21 22 21 19 17 20 22 20 21 22 22 22 21 19 18 18 19 18 18 18 18 19 19 19 18 18 18 18 17 16 17 17 16 16 16 16 16 17 18 18 18 18 19 18 18 17 17 17 17 17 17 17 17 17 17 17 17 17 16 16 15 15 15 15 15 15 15 15 15 15
18 20 20 20 20 19 18 17 17 18 18 19 20 20 20 20 21 21 20 19 17 20 21 19 20 22 22 22 21 19 19 20 20 19 19 18 19 19 19 19 19 18 18 18 17 16 16 17 16 16 16 16 16 17 18 18 18 18 18 18 18 17 17 17 17 17 17 17 17 17 17 17 17 16 16 15 15 15 15 15 15 15 15 15 15 15
19 20 20 19 17 16 16 15 17 18 18 19 19 20 20 19 20 20 19 19 17 20 22 19 21 23 22 21 20 20 20 21 20 19 20 19 19 19 19 19 19 18 18 18 18 17 17 16 16 16 15 15 16 17 17 18 18 18 18 18 18 17 17 17 17 17 18 17 17 17 17 17 17 16 16 15 15 15 15 14 14 14 14 14 14 14
20 20 19 17 16 17 17 15 17 19 18 19 19 20 20 19 20 21 20 19 17 18 20 20 21 22 22 21 20 19 18 19 19 18 18 18 19 20 19 19 19 18 18 18 18 17 17 16 16 15 15 15 16 16 17 17 17 18 18 18 18 17 17 17 17 17 18 17 17 17 17 17 17 16 15 15 15 15 15 14 14 14 14 14 14 14
21 20 17 16 17 18 19 16 17 19 19 19 19 20 20 20 20 21 20 19 18 17 17 19 21 21 21 21 21 18 16 18 18 18 18 18 18 18 19 19 19 19 19 18 18 17 17 17 16 15 15 15 15 16 17 17 17 18 18 18 18 18 17 17 17 17 18 18 17 17 17 17 16 16 15 15 15 15 15 14 14 14 14 14 14 14
20 17 15 18 18 18 19 18 18 20 20 19 20 20 21 21 21 20 19 20 20 20 17 18 20 21 20 21 22 19 18 20 19 19 20 19 17 17 18 19 18 18 19 18 18 18 17 17 16 15 15 15 15 16 17 17 17 18 18 18 18 17 17 17 17 18 18 18 17 17 17 16 16 15 15 16 16 15 15 14 14 14 14 14 14 14
19 16 15 18 19 18 19 19 18 19 20 20 20 19 19 20 20 20 20 20 21 20 17 16 20 21 20 22 21 19 20 22 21 21 20 18 18 18 18 18 18 18 18 18 18 18 18 17 17 16 15 15 16 16 17 17 17 18 18 18 17 17 17 17 18 18 18 18 18 18 18 17 17 17 17 16 16 15 15 14 14 14 14 14 14 14
18 17 17 18 19 19 20 20 18 18 20 21 18 18 19 20 21 20 20 20 19 19 18 17 19 20 20 21 20 18 21 22 22 22 20 18 19 19 19 19 18 18 18 18 18 18 18 18 17 16 15 15 16 16 16 17 17 18 18 18 17 17 17 17 18 18 18 18 18 18 18 18 17 17 17 17 16 15 15 14 14 14 14 13 13 13
18 20 19 19 20 20 21 21 19 18 21 19 16 16 18 19 19 19 20 20 18 18 20 19 19 20 20 21 20 19 21 22 22 21 20 19 19 18 19 18 18 18 18 18 18 18 18 18 17 17 16 16 16 16 16 17 17 18 18 18 17 17 17 17 18 18 18 18 18 18 18 17 17 17 17 17 16 15 15 14 14 14 14 13 13 13
18 19 19 19 20 21 21 19 17 19 20 17 14 16 17 17 17 18 19 19 18 18 21 20 18 19 20 21 21 20 21 21 20 20 19 19 19 19 18 18 18 18 18 18 18 18 18 18 17 16 16 16 16 15 16 16 17 17 18 18 17 17 17 17 18 18 18 18 18 18 18 18 17 17 17 17 16 15 15 14 14 14 14 13 13 13
17 16 16 18 20 20 18 15 14 17 17 16 17 19 19 18 18 18 18 19 19 19 20 18 16 18 20 20 20 20 19 18 18 18 19 19 19 19 18 17 17 17 17 17 18 18 18 17 17 16 16 16 15 15 15 16 16 17 18 18 17 17 17 17 17 18 18 18 18 18 18 18 17 17 17 17 16 15 15 14 14 14 14 14 13 13
18 17 17 18 18 18 18 17 15 15 15 16 19 20 20 19 19 19 18 18 18 19 19 15 14 17 19 20 20 18 17 16 16 17 18 18 18 18 17 17 17 16 16 16 17 18 17 17 16 16 16 16 15 14 15 15 16 17 18 18 17 17 17 17 17 17 18 18 18 18 18 18 18 17 17 17 17 16 15 15 14 14 14 14 13 13
20 20 18 18 18 18 20 19 17 16 16 18 20 20 20 19 18 18 19 18 18 19 17 15 15 17 19 20 19 17 17 17 16 16 17 17 17 17 17 17 16 16 16 16 17 17 17 17 16 16 16 15 14 14 15 15 16 17 17 17 17 16 17 17 17 17 17 18 18 18 18 18 18 18 17 17 17 17 16 15 15 14 14 14 13 13
21 20 18 19 19 18 19 21 20 19 18 19 20 20 20 19 17 17 17 16 18 18 16 14 16 18 19 19 18 16 17 17 16 16 16 16 16 16 16 16 16 16 16 16 17 17 17 17 16 16 16 15 14 14 14 15 15 16 16 16 16 16 17 17 17 17 17 18 18 18 18 18 18 18 18 17 17 17 17 16 16 16 15 15 14 14
19 20 19 20 19 18 19 20 20 20 19 18 19 19 20 19 18 18 18 18 19 18 16 15 17 19 20 19 16 16 17 16 16 17 16 16 16 16 16 16 16 16 16 16 17 17 16 16 16 16 15 15 14 14 14 14 15 15 15 15 15 16 16 16 16 17 17 17 18 18 18 18 18 18 18 18 18 17 17 17 17 16 16 16 15 15
17 19 19 18 17 17 19 18 17 20 19 16 17 19 20 20 20 17 16 17 17 18 17 17 17 18 18 17 16 16 17 17 17 17 16 16 16 16 16 16 16 15 15 15 16 16 16 16 16 15 15 14 14 14 14 14 15 15 15 15 15 15 15 16 16 16 17 17 17 17 18 18 18 18 18 18 18 17 17 17 17 17 16 16 16 15
17 19 19 17 17 17 17 17 17 19 20 17 17 20 18 17 19 17 14 13 14 17 17 16 17 18 18 18 17 17 17 17 17 16 16 16 16 16 16 15 15 15 15 14 15 15 15 16 16 15 15 15 14 14 14 14 15 15 15 15 15 15 15 15 15 16 16 17 17 17 17 17 17 17 17 18 18 18 17 17 17 17 17 16 16 15
17 19 19 18 19 18 15 17 18 17 18 19 19 19 17 16 18 18 17 15 14 17 17 15 17 18 18 18 18 17 17 17 17 16 16 16 16 15 15 15 15 14 14 14 14 14 14 15 15 15 15 15 15 15 15 15 15 16 16 15 15 15 15 15 15 15 16 16 17 17 17 17 18 17 17 18 18 17 17 17 17 17 16 16 16 15
16 19 19 16 17 18 16 17 19 17 16 18 18 18 17 18 19 18 17 17 16 16 16 15 15 16 19 19 18 17 17 17 16 16 16 16 15 15 14 14 14 14 14 14 14 13 13 13 14 14 14 14 14 15 15 15 15 15 16 15 15 16 16 15 15 15 15 16 16 16 17 17 17 18 18 18 17 17 17 17 17 17 17 16 16 15
15 17 19 17 16 17 17 19 19 19 17 17 17 17 17 18 18 18 17 18 18 16 15 16 16 17 19 18 17 18 17 17 16 16 16 15 14 14 13 13 13 13 13 13 13 13 13 13 13 13 13 14 14 14 14 14 14 15 15 15 15 15 15 15 15 15 15 16 16 16 16 17 17 17 17 18 18 17 17 17 17 17 17 16 16 15
15 16 17 18 17 17 18 18 18 18 18 18 18 18 17 16 16 17 17 17 18 17 15 15 16 18 18 15 16 19 17 16 16 15 15 15 14 13 12 12 12 12 12 12 12 13 13 13 12 12 12 13 13 13 13 14 14 14 14 14 15 15 15 15 15 15 15 16 16 16 16 16 17 17 17 17 17 17 17 17 17 17 17 16 16 16
16 16 16 17 18 18 18 16 15 16 16 17 18 18 18 17 17 18 17 15 16 17 16 15 17 19 17 13 15 17 16 15 15 14 15 14 13 13 12 12 12 12 12 12 12 12 12 13 13 12 12 12 12 12 13 13 13 13 14 14 14 14 14 15 15 15 16 16 16 16 16 16 16 17 17 17 17 17 17 17 17 17 17 16 16 16
15 15 16 16 17 17 16 13 12 13 14 15 16 16 17 17 18 19 18 16 16 15 15 15 16 18 16 13 13 14 14 14 13 13 14 13 12 12 12 12 11 11 11 11 11 12 12 12 12 12 12 12 11 11 11 12 12 13 13 13 13 13 14 14 14 15 15 15 16 16 16 16 17 17 17 17 17 17 17 17 17 17 17 16 16 16
14 15 15 16 16 17 15 13 12 12 13 15 15 14 14 16 16 17 17 16 16 15 15 15 15 17 15 12 12 12 12 13 12 12 13 13 12 12 12 11 11 11 11 11 11 12 12 12 12 12 12 12 11 11 10 11 11 12 13 13 13 12 13 13 13 14 14 14 15 15 15 16 16 17 16 15 16 16 17 17 16 17 17 16 16 16
15 15 15 15 15 16 16 15 15 15 15 16 15 13 13 14 15 15 15 15 16 15 16 16 16 17 15 12 12 13 12 13 13 12 13 13 12 12 12 11 11 11 11 12 11 12 12 12 12 12 12 12 11 11 10 10 11 11 11 12 12 12 12 13 12 13 13 13 14 14 15 15 16 16 16 15 14 15 16 16 16 16 16 16 16 16
15 14 14 15 14 14 14 15 16 16 15 14 14 14 13 13 14 15 15 16 15 14 14 16 17 16 15 13 14 13 12 13 13 12 12 12 12 12 11 11 11 11 11 11 11 11 11 12 12 12 11 11 11 11 11 11 10 10 10 10 10 11 12 13 12 12 12 12 13 13 14 14 15 15 15 15 14 14 14 14 15 15 15 16 16 15
14 13 14 15 15 14 15 15 14 13 14 15 15 15 14 13 13 14 15 15 15 14 14 15 16 16 16 15 14 14 13 14 13 13 13 12 12 11 11 11 11 11 11 11 11 11 11 11 12 11 11 11 11 11 11 11 11 10 10 10 10 10 11 12 13 13 12 12 12 12 13 14 14 14 15 15 14 14 13 13 14 14 14 15 15 15
14 13 13 13 14 14 14 14 12 11 13 14 14 15 15 13 13 14 15 15 15 14 15 15 15 15 16 16 15 14 13 13 13 13 13 12 12 11 10 11 11 11 11 11 11 11 11 11 11 11 11 11 11 11 11 10 10 10 10 10 11 11 11 12 12 12 12 12 12 12 12 13 13 14 14 14 14 13 13 13 13 14 14 14 14 14
13 13 12 12 13 13 12 12 11 11 12 13 13 14 14 14 13 13 14 14 14 14 15 15 15 15 16 16 16 15 14 14 14 13 12 11 11 11 11 11 11 11 11 11 11 11 11 11 11 11 11 10 10 11 10 10 10 10 10 10 10 11 11 11 11 11 11 12 12 12 12 12 12 13 13 14 13 13 13 13 13 13 13 13 12 13
13 13 12 11 12 13 12 12 11 11 12 12 12 13 13 13 13 13 14 14 13 14 14 14 15 15 15 16 17 14 13 13 13 11 11 11 11 11 11 11 12 11 11 11 11 11 10 10 11 11 10 10 10 10 10 10 10 10 10 10 10 10 10 11 11 11 10 10 10 11 11 12 12 12 12 12 13 13 13 13 12 12 12 12 12 12
12 12 11 11 12 12 13 13 12 12 12 12 13 13 12 12 12 12 12 12 12 13 13 13 13 13 14 15 14 11 10 11 11 11 11 11 11 11 11 11 12 12 12 11 11 11 10 10 11 11 11 10 10 10 10 10 10 10 10 9 9 9 9 10 11 11 11 11 10 10 10 11 11 11 11 11 12 12 12 12 11 11 11 11 11 12
12 11 10 11 11 11 12 13 13 13 12 11 12 12 12 12 12 11 11 11 12 13 13 12 12 12 13 13 11 10 10 11 12 12 11 11 10 10 11 12 12 12 12 12 11 11 11 11 11 11 10 10 10 10 9 9 9 9 9 9 9 9 9 9 10 10 10 11 11 11 10 10 10 11 11 11 11 11 11 11 11 11 11 11 11 12
11 11 11 11 10 10 11 12 12 11 11 11 11 11 12 13 12 12 12 11 12 13 13 13 12 13 13 12 12 12 11 11 12 11 11 11 10 10 11 12 12 12 11 11 11 11 11 11 11 10 10 10 9 9 9 9 9 9 9 9 8 8 8 9 9 9 9 10 11 11 11 10 10 10 10 11 11 11 11 11 10 10 10 10 11 11
9 10 11 10 10 10 10 10 10 10 10 11 10 9 10 11 12 12 12 12 12 12 12 12 12 11 10 10 12 12 11 10 10 10 10 10 10 10 11 11 11 11 11 11 11 11 11 11 10 10 9 9 9 9 9 9 9 9 9 8 8 8 8 8 8 8 9 9 10 11 11 10 10 10 10 10 10 10 10 10 10 10 10 10 11 11
9 10 9 9 9 9 9 9 9 9 10 10 10 8 8 9 10 11 11 10 10 10 10 11 10 9 9 9 10 10 10 9 9 10 10 10 10 11 11 11 11 11 12 12 12 11 11 11 10 10 9 9 9 9 9 9 9 9 9 8 8 8 8 8 8 8 8 9 10 10 10 10 10 10 10 10 10 9 10 10 10 10 10 10 10 10
9 9 8 8 8 8 8 9 8 9 10 11 10 9 8 8 9 10 11 9 8 8 8 9 10 9 9 9 8 8 9 9 10 11 11 9 9 10 11 11 11 11 11 12 11 11 11 10 10 10 9 9 9 9 9 9 9 9 8 8 8 8 8 7 7 8 8 8 9 9 9 9 9 9 9 10 10 9 9 10 10 10 10 10 10 10
9 9 9 9 9 8 7 8 9 9 10 10 10 8 8 8 8 9 10 9 8 7 8 9 10 9 9 9 8 8 9 10 12 12 11 10 10 9 10 11 11 10 10 10 10 10 10 10 10 9 9 9 9 9 9 9 9 8 8 8 8 8 8 7 7 8 8 8 8 8 8 9 9 9 9 10 10 9 9 10 10 10 9 9 9 9
8 9 9 9 8 7 7 8 8 8 8 9 9 8 7 7 7 7 8 9 9 8 8 9 10 9 9 9 8 8 10 11 12 12 12 12 11 10 10 11 10 10 10 9 9 9 10 10 9 9 9 8 8 9 9 9 9 8 8 7 7 8 8 8 8 8 8 8 8 8 8 9 9 9 9 9 10 9 9 9 9 9 9 8 8 8
7 7 8 9 8 7 7 8 7 7 8 8 8 8 8 6 6 7 9 9 9 8 8 9 9 9 9 9 8 9 10 11 11 12 12 11 11 10 10 10 11 11 10 10 9 9 9 9 9 9 8 8 8 9 9 9 8 8 7 7 7 7 7 7 8 8 8 7 7 8 8 8 8 9 9 9 10 9 9 9 9 9 8 8 7 7
8 7 7 8 8 7 7 7 7 7 8 8 8 8 7 5 6 8 9 9 8 8 9 9 9 10 9 8 7 9 10 10 10 12 11 10 9 9 9 9 10 10 10 10 9 9 8 8 8 8 8 8 8 9 9 9 8 7 7 7 7 7 7 7 8 7 7 7 7 8 8 8 8 8 8 9 9 9 9 9 8 8 7 7 7 8
7 7 7 7 7 7 7 7 7 8 8 8 8 8 7 6 7 8 8 8 8 8 9 8 8 9 9 8 8 9 10 10 10 10 10 9 9 9 9 9 9 9 9 9 8 8 8 8 7 7 7 8 8 8 8 8 7 7 7 7 7 7 7 8 7 7 7 7 7 7 8 8 8 8 8 9 9 8 8 8 8 7 7 7 8 8
6 6 6 6 6 6 6 6 7 7 7 7 8 8 8 7 8 8 7 8 8 8 8 8 8 8 8 8 8 9 10 10 9 9 9 9 8 9 9 9 9 8 8 8 7 7 7 7 7 7 7 8 8 8 8 7 7 6 7 7 7 7 8 8 7 7 7 7 7 7 7 7 8 8 8 8 8 8 7 7 6 6 6 6 7 7
7 6 6 6 6 5 5 5 6 6 7 7 8 8 8 8 8 8 8 8 8 8 8 8 8 8 8 8 8 8 8 8 8 8 8 8 8 8 8 9 8 8 8 8 8 7 7 7 7 7 7 7 7 7 7 7 6 6 6 7 7 7 7 7 7 7 6 7 7 7 7 7 8 8 7 7 7 7 6 5 5 6 6 6 7 7
7 6 5 5 6 5 5 5 6 7 7 7 7 7 8 8 8 8 7 7 7 8 8 8 8 8 8 8 8 8 8 8 8 8 8 8 8 8 8 8 8 8 8 8 8 7 7 7 7 7 7 7 7 7 6 6 6 6 6 7 7 7 7 7 6 6 6 6 7 7 7 7 7 7 7 7 6 6 5 5 5 6 6 7 7 7
7 6 6 5 6 6 6 6 7 7 7 7 7 7 8 8 8 8 7 7 7 8 7 7 8 8 8 8 8 8 8 8 8 8 8 8 8 8 8 8 8 8 8 7 7 7 7 7 7 7 7 6 6 6 6 6 6 6 6 6 7 7 7 6 6 6 6 7 7 7 7 7 7 7 7 6 5 5 5 6 6 6 7 7 7 7
6 5 5 6 6 6 6 6 6 7 7 7 7 7 7 7 7 7 7 6 7 7 7 7 7 8 8 7 7 7 7 8 7 7 7 7 7 8 8 8 8 8 7 7 7 7 7 7 7 7 6 6 6 6 6 6 6 6 6 6 6 6 6 6 6 6 7 7 7 7 7 7 6 6 6 5 5 6 6 7 7 7 7 7 7 7
6 5 5 6 5 5 5 6 6 6 7 7 7 7 7 7 7 7 6 6 7 7 7 6 6 6 7 6 6 7 7 7 7 7 7 7 7 7 8 8 8 8 7 7 7 7 7 7 7 6 6 6 6 6 6 6 6 6 6 6 6 6 6 6 6 7 7 7 7 7 7 6 5 5 5 5 6 6 7 7 7 7 6 7 7 7
5 5 5 5 5 5 5 6 6 6 6 6 6 6 7 7 7 7 6 7 7 6 6 6 6 6 6 6 6 6 6 6 6 6 6 7 7 7 7 8 7 7 7 7 7 6 6 6 6 6 6 6 7 7 6 6 6 6 6 6 6 6 6 6 7 7 7 7 7 7 6 5 5 5 4 5 6 7 7 7 7 7 7 7 7 7
5 5 5 5 5 5 5 6 6 6 6 6 6 6 6 6 6 6 6 6 6 6 6 6 7 7 6 6 6 6 6 6 6 6 6 6 6 7 7 7 7 7 7 7 6 6 6 6 6 6 6 6 6 6 6 6 6 6 6 6 6 6 6 6 6 6 7 7 7 6 5 5 5 5 5 5 6 6 7 7 7 7 7 8 8 8
5 5 5 4 4 4 5 5 5 5 4 5 6 6 6 6 6 6 6 6 6 6 6 6 6 7 7 6 6 6 5 6 6 6 6 6 6 7 7 7 6 6 6 6 6 6 6 6 5 5 6 6 6 6 6 6 6 6 6 6 6 6 6 6 6 6 6 6 6 5 4 4 4 5 5 6 6 6 6 7 8 8 8 8 8 7
5 5 5 4 3 4 5 5 5 4 4 5 6 6 6 6 5 5 5 5 6 6 6 5 5 5 6 6 6 6 5 5 6 6 5 5 6 6 6 6 6 6 5 5 5 5 5 5 5 5 6 6 6 6 6 6 6 6 6 6 6 6 6 6 6 5 5 5 4 4 4 4 4 5 5 6 6 6 6 6 7 8 8 8 7 7
Height
778 779 782 782 780 780 781 784 784 786 787 786 786 785 786 786 780 777 777 781 784 778 776 781 780 776 773 769 769 773 776 777 777 779 779 779 778 778 778 777 777 778 779 781 783 785 786 788 789 791 793 794 796 797 799 800 801 803 804 805 806 808 810 811 811 812 812 813 814 815 816 817 818 818 819 819 820 821 821 821 821 821 822 822 822 822
779 782 783 778 778 781 784 788 789 789 790 788 787 785 787 788 780 778 781 783 784 779 778 785 781 773 771 769 769 773 775 774 774 776 777 777 777 776 776 775 775 776 778 780 782 784 785 787 788 790 792 793 795 796 797 799 800 802 803 805 806 808 810 811 812 813 813 813 814 815 816 817 818 818 819 820 820 821 821 821 821 821 822 822 822 822
781 781 778 778 783 787 789 792 789 787 789 788 789 787 785 788 784 781 782 783 785 779 776 783 780 771 770 771 771 772 770 769 771 773 772 773 774 775 774 774 775 776 778 779 780 782 783 785 787 789 791 792 793 795 796 798 800 801 803 805 806 807 809 811 812 813 813 814 814 815 816 817 818 818 819 820 820 821 821 821 822 822 822 822 822 822
783 778 778 783 786 784 786 792 789 785 788 788 789 786 785 789 787 782 780 782 787 785 781 783 780 773 771 771 772 774 774 771 771 773 773 772 772 771 771 771 772 775 776 776 777 779 781 784 785 787 788 790 792 794 795 796 798 800 802 803 805 806 808 810 811 813 813 814 815 815 816 817 818 818 819 820 821 821 821 822 822 822 822 822 822 822
778 777 781 785 784 781 783 790 788 783 785 788 788 785 784 785 784 782 782 782 784 787 787 783 778 774 773 773 771 774 778 774 771 772 771 772 772 771 770 770 770 770 771 773 774 776 778 780 781 783 785 788 790 791 792 794 796 798 800 802 804 805 807 809 810 812 813 813 814 815 817 818 818 819 819 820 821 821 822 822 822 822 822 822 823 823
775 781 784 781 782 783 782 785 785 781 783 786 783 779 779 778 780 783 784 783 781 784 789 788 784 779 776 773 772 775 775 772 771 770 768 770 772 773 773 770 770 769 768 770 770 772 773 775 777 780 783 785 787 788 789 792 794 797 799 801 803 805 806 808 809 811 812 813 814 815 816 817 818 819 819 820 821 821 822 822 823 823 823 823 824 824
777 784 784 779 779 782 781 782 782 780 782 783 778 776 779 779 779 782 782 782 784 786 792 793 789 785 779 770 772 778 772 767 767 767 769 772 771 772 771 769 768 768 767 767 767 768 769 772 775 777 779 781 783 784 787 790 793 795 797 799 802 804 806 807 808 809 811 812 813 814 816 817 818 819 819 820 821 822 822 823 823 823 824 824 824 825
778 780 782 780 778 779 779 777 779 780 778 778 778 779 780 778 778 781 780 783 787 788 791 791 788 789 784 773 774 780 772 766 764 764 769 771 769 769 767 766 765 764 764 764 765 765 766 768 770 772 774 777 780 782 785 788 790 793 796 798 801 803 805 806 807 808 809 810 812 813 815 816 817 818 819 820 821 822 822 823 823 824 824 824 825 825
778 775 776 778 777 776 772 770 775 777 774 778 784 785 782 780 781 781 782 786 792 792 787 787 789 791 786 775 774 777 772 768 767 767 769 768 768 768 765 764 763 761 761 760 761 761 762 764 765 767 771 774 778 780 783 785 788 791 794 797 799 802 804 805 806 807 808 809 811 812 814 816 817 818 819 820 821 822 822 823 823 824 824 825 825 826
776 775 774 775 773 771 769 773 777 774 774 781 787 786 784 787 787 786 787 786 792 796 788 786 791 793 787 775 771 774 773 772 772 770 769 767 766 765 763 764 763 761 760 758 758 758 759 761 763 767 771 774 777 779 782 785 787 790 792 795 797 800 802 804 805 806 807 809 810 811 813 814 816 817 818 819 820 821 822 823 823 824 824 825 825 826
775 776 776 773 770 769 772 781 784 778 779 783 782 779 781 786 787 788 791 788 794 798 790 793 798 795 791 780 774 779 780 781 780 774 770 767 766 764 762 762 761 760 759 757 757 757 759 762 764 768 771 773 776 778 781 784 786 788 790 793 795 798 800 802 804 805 806 808 809 810 812 813 815 816 817 818 819 821 822 822 823 823 824 825 825 826
774 775 775 770 768 771 772 778 784 783 784 783 776 775 781 786 787 790 792 793 800 799 793 802 806 798 793 782 776 783 784 785 785 779 775 772 769 767 764 761 760 759 757 755 755 755 757 761 764 767 769 772 774 777 779 782 784 786 788 791 793 796 798 800 803 804 805 807 808 809 810 812 813 815 816 817 818 819 820 822 822 823 824 824 825 826
769 767 772 770 767 769 768 773 782 783 782 779 774 778 786 791 797 799 797 799 801 796 796 807 806 797 789 778 777 784 782 781 783 781 779 777 773 771 768 764 761 759 757 754 753 753 755 758 762 765 767 769 772 774 777 780 782 784 786 788 791 793 796 799 801 803 804 805 806 807 809 810 812 813 815 816 817 818 819 821 821 822 823 824 824 825
770 766 770 768 766 768 767 769 775 777 779 777 774 780 786 795 809 812 808 810 803 794 800 807 803 794 784 777 781 784 781 781 782 780 779 778 777 774 770 766 763 761 758 754 753 753 755 757 760 764 767 769 771 774 777 779 782 784 786 787 789 792 794 796 799 801 802 803 804 806 807 809 810 811 813 814 816 817 818 819 820 821 822 823 823 824
783 777 769 766 767 769 767 766 768 770 776 780 776 776 780 786 798 803 799 798 795 794 802 805 798 790 782 781 784 782 781 781 780 779 779 778 777 775 771 767 764 762 759 756 754 755 756 758 760 763 767 770 772 774 776 779 782 784 786 787 789 792 793 795 797 799 801 802 803 805 806 807 809 810 812 813 814 816 817 818 820 821 821 822 823 824
791 782 769 768 772 770 768 769 769 767 774 784 782 776 778 776 779 796 804 800 796 796 799 799 793 786 782 783 783 781 781 780 780 780 780 779 777 774 770 767 766 764 762 760 758 757 758 759 761 763 766 769 772 774 776 779 781 783 785 786 788 791 793 794 796 798 799 801 802 804 805 807 808 810 811 812 813 815 816 818 819 820 821 821 822 823
788 780 769 770 772 770 770 770 769 768 770 781 781 775 778 776 774 793 811 815 810 800 796 797 791 784 783 783 780 781 781 780 781 782 780 780 777 774 772 770 769 767 765 764 762 761 761 762 763 764 766 769 770 773 775 777 780 782 784 785 787 789 791 792 794 796 798 800 801 802 804 806 807 808 809 810 812 814 815 817 818 819 820 820 821 822
786 778 769 771 769 769 773 770 767 770 770 775 776 771 776 781 779 785 798 810 812 801 797 800 795 786 784 783 781 782 783 781 782 782 781 780 777 776 776 774 773 771 769 768 766 765 765 765 765 766 767 769 770 772 774 775 778 780 781 783 785 787 789 791 793 794 796 798 799 800 801 803 805 806 807 809 810 812 814 815 816 818 819 819 820 821
788 781 772 775 774 770 771 769 769 772 771 771 771 770 775 779 780 784 793 800 803 804 802 800 801 794 782 779 780 781 782 782 783 783 781 780 780 779 779 777 776 774 772 771 769 768 768 768 769 768 768 770 772 773 774 775 777 779 780 782 783 785 787 789 791 792 794 796 796 798 800 801 802 804 805 807 808 810 812 813 814 816 817 818 819 820
789 785 778 775 776 774 769 769 771 772 773 773 771 774 778 778 779 782 786 785 787 800 804 797 797 789 774 774 778 777 779 782 783 784 782 782 783 783 782 781 779 777 776 775 773 772 771 771 771 770 770 772 774 776 776 777 778 779 781 782 783 785 786 787 789 790 792 793 794 797 798 799 801 802 803 804 806 807 808 810 812 813 815 816 817 818
787 789 784 775 773 775 772 773 775 773 773 774 773 776 780 783 786 783 784 785 784 793 803 801 794 779 772 779 778 773 778 782 783 784 784 785 787 785 786 784 782 781 780 778 777 776 775 775 775 774 774 774 775 776 777 779 780 780 781 783 784 785 786 787 788 789 790 791 793 795 796 797 798 799 800 801 802 804 805 807 808 810 812 814 815 816
787 788 788 781 775 774 774 779 782 779 778 776 773 774 775 779 783 782 786 792 787 788 795 799 791 775 774 785 781 777 781 782 785 786 786 788 790 789 789 787 785 784 782 781 780 779 779 778 778 778 777 776 776 778 779 780 781 779 781 784 785 786 786 786 787 788 788 790 791 793 793 794 795 796 796 797 798 800 801 803 805 807 809 810 812 814
787 788 788 785 779 777 780 786 789 787 785 781 779 779 777 776 776 776 781 787 789 793 795 795 791 779 777 785 785 784 786 785 787 788 786 789 791 790 790 789 788 786 784 784 783 782 782 781 781 780 779 779 780 781 782 782 780 778 780 784 786 787 787 787 787 787 787 788 789 790 791 791 792 793 793 794 795 796 798 800 802 803 805 807 809 811
788 789 789 787 782 778 780 785 789 788 785 781 781 785 784 780 777 777 780 782 786 791 791 793 794 782 778 786 788 787 788 788 789 789 787 789 790 790 790 789 789 788 786 785 784 784 784 783 783 783 782 783 783 784 784 783 781 780 782 785 787 788 787 786 786 786 786 787 787 788 789 789 789 790 790 791 791 793 795 796 798 800 802 804 806 808
787 789 791 792 791 787 784 784 783 782 781 781 783 789 790 786 784 784 785 784 784 787 786 787 787 780 780 788 788 787 788 786 788 790 787 788 789 789 790 790 790 789 787 786 785 785 785 784 785 785 786 786 786 786 786 785 785 785 785 788 789 789 788 786 786 785 785 786 787 787 787 787 787 788 788 788 789 790 792 794 796 798 799 800 802 804
787 791 791 792 797 799 794 789 784 782 784 785 785 787 789 788 786 782 783 784 785 790 791 784 779 777 782 786 785 786 788 785 787 790 788 788 789 789 790 791 790 790 789 788 787 787 787 786 787 787 787 788 788 788 788 788 788 788 789 791 790 789 788 786 785 785 785 786 786 786 786 785 786 786 786 787 787 788 790 792 794 795 796 797 798 800
791 794 791 789 790 791 787 785 790 791 788 785 784 783 785 790 789 784 784 784 783 789 790 784 781 779 778 781 783 784 786 784 785 788 787 788 789 790 791 791 791 791 790 790 789 789 789 789 789 789 789 788 788 788 788 789 789 789 790 790 789 787 786 785 785 784 785 786 786 786 785 784 784 784 784 785 786 786 788 789 790 792 793 794 795 796
791 793 794 793 789 788 787 787 796 799 791 786 785 783 783 788 790 786 784 783 784 787 785 781 783 782 776 776 779 782 784 784 784 784 785 786 789 790 791 791 791 791 790 790 790 790 790 791 791 791 791 791 790 790 790 790 790 790 789 788 787 785 784 783 783 784 784 785 785 785 784 783 783 782 783 783 783 784 785 786 787 789 791 792 793 794
792 791 795 797 791 790 793 793 797 799 793 790 790 786 783 785 788 787 782 782 785 784 778 776 779 779 775 772 773 777 779 779 780 782 784 787 788 789 790 790 790 790 790 790 790 790 790 790 791 791 791 791 791 791 791 790 790 790 788 787 786 784 784 783 783 783 784 784 784 784 783 782 781 781 781 781 781 781 782 783 784 786 788 789 791 794
793 791 795 798 792 790 792 792 795 795 792 790 788 786 786 786 786 784 781 782 784 780 778 779 777 774 773 770 769 775 779 778 780 784 785 786 787 788 789 789 789 789 789 789 789 789 789 789 789 790 790 789 789 789 789 789 788 787 786 785 785 784 784 784 783 783 783 783 783 782 781 781 780 779 779 779 779 779 779 780 781 783 785 786 788 790
794 794 798 799 794 791 788 788 791 790 789 787 784 784 789 789 789 789 786 787 788 784 783 785 783 778 774 772 775 781 784 783 783 784 784 784 786 788 789 788 788 788 788 788 788 788 788 788 788 788 788 788 788 788 787 787 787 786 786 785 785 784 784 783 783 782 782 781 781 780 780 779 778 778 777 776 776 777 777 778 779 780 781 782 784 786
794 798 800 799 797 793 788 787 786 785 788 789 787 787 787 785 787 788 787 786 785 781 781 785 785 779 773 774 780 784 784 782 781 782 783 785 787 788 788 787 786 787 787 787 787 787 787 788 787 788 788 787 787 787 786 786 786 785 785 785 785 784 784 783 782 781 780 780 779 778 777 777 776 775 775 774 774 774 775 776 776 778 779 780 781 783
798 798 798 800 801 797 791 790 790 791 792 788 786 787 782 776 778 781 782 782 780 777 777 778 776 772 772 776 778 778 780 781 781 782 784 785 787 788 787 786 785 786 786 786 786 786 786 787 787 787 787 787 787 787 786 786 785 784 784 784 783 782 782 781 781 780 778 778 777 776 775 774 774 773 772 772 772 772 772 773 774 775 776 777 778 780
803 799 798 801 802 800 798 796 798 800 796 785 784 789 786 780 779 777 776 778 778 777 776 775 776 779 782 781 776 774 778 782 784 785 786 786 787 787 786 786 785 784 784 784 785 785 786 786 787 787 787 787 787 786 786 785 785 784 783 782 781 780 780 779 778 777 776 775 774 774 773 772 771 771 770 770 770 770 770 770 771 772 773 774 776 777
803 803 804 805 806 807 806 804 806 804 792 783 787 793 792 789 786 780 778 782 786 785 782 779 781 785 785 783 781 780 781 785 786 786 786 786 786 786 785 784 784 783 782 782 782 783 784 784 785 785 785 785 785 785 784 784 783 783 782 782 781 779 778 777 776 776 775 773 772 771 771 770 769 768 768 768 768 768 768 768 769 770 771 772 774 775
801 804 808 808 808 811 810 808 807 800 786 782 787 790 790 789 787 782 780 787 792 792 789 784 782 785 785 785 786 786 785 785 783 782 784 786 785 785 784 783 783 783 782 781 781 782 783 783 783 783 783 783 783 783 782 782 782 781 781 780 780 778 777 776 775 774 773 771 770 770 769 768 767 766 766 765 765 765 765 766 766 767 768 770 772 774
800 802 804 804 805 810 812 806 800 794 789 785 787 792 794 794 793 789 785 788 793 793 792 788 784 784 784 784 787 788 784 781 779 778 781 783 784 785 784 783 783 783 782 782 781 781 781 781 782 781 781 781 781 780 780 780 779 779 779 779 778 777 776 775 774 773 771 770 769 768 767 767 766 765 764 763 763 763 763 763 764 765 766 768 770 773
802 801 801 802 804 809 812 807 803 802 798 792 791 796 797 796 798 798 792 789 791 793 792 789 785 785 784 784 787 787 781 778 778 777 778 781 782 783 783 782 783 783 782 782 781 780 780 780 779 780 779 779 778 778 777 777 776 776 776 776 776 775 774 773 772 771 769 768 767 766 765 765 764 763 762 761 761 761 760 761 762 763 765 766 769 771
806 806 803 802 805 810 809 806 806 805 799 795 796 796 795 798 801 798 791 786 790 793 792 789 787 786 786 787 788 785 781 780 779 776 777 780 782 783 783 783 783 783 782 782 781 780 779 778 778 777 777 777 776 775 775 774 774 773 773 773 772 771 771 770 769 768 767 766 765 764 763 762 761 761 760 759 759 758 758 759 760 761 763 765 767 770
804 808 808 805 805 809 809 806 806 803 798 797 797 794 795 800 799 795 790 788 791 793 791 790 788 786 787 791 791 787 784 783 781 779 780 783 784 785 785 784 783 782 782 781 781 780 779 778 777 776 775 774 773 773 772 772 771 770 770 769 769 768 767 766 765 765 764 763 762 761 760 760 759 758 757 756 756 756 756 757 759 760 762 764 766 769
807 810 812 810 807 808 810 809 805 800 797 798 797 794 796 798 795 793 793 794 795 793 790 791 791 788 788 791 790 787 785 784 784 783 783 784 784 784 784 783 783 782 781 780 780 779 778 777 776 774 773 771 770 770 769 769 768 767 767 766 765 765 763 762 762 761 760 759 759 758 757 756 756 755 754 754 754 754 754 755 757 759 761 764 766 768
814 814 814 813 812 811 811 810 806 801 798 798 796 793 794 796 796 796 796 796 795 793 791 791 791 789 789 790 789 787 785 784 785 785 784 784 783 782 781 781 780 780 779 778 777 777 776 775 773 772 770 768 767 767 766 766 765 764 763 762 761 760 760 759 759 758 757 756 755 754 753 753 752 752 751 751 751 752 753 754 756 759 761 764 766 768
812 815 814 813 814 816 816 816 813 806 800 798 798 796 794 796 798 797 795 794 793 793 792 791 790 789 789 788 787 786 785 785 785 785 784 783 782 780 779 778 777 776 775 775 774 773 773 771 769 768 766 765 764 763 763 762 761 760 760 758 757 756 756 756 755 754 753 752 751 751 750 749 749 749 748 748 749 750 752 753 756 759 762 764 767 770
810 814 817 815 814 816 817 813 807 801 799 799 801 800 797 796 796 796 796 795 793 791 791 790 788 787 787 787 786 785 785 785 784 783 782 781 780 779 777 775 774 772 771 770 770 769 769 767 765 763 762 761 760 759 759 758 757 756 756 754 753 753 752 752 751 751 750 749 748 748 747 746 746 746 746 747 748 749 751 753 756 760 763 765 768 772
811 812 816 815 812 811 810 805 799 797 799 800 802 801 798 796 795 795 796 795 793 791 790 790 787 786 786 786 785 784 783 782 781 780 779 778 777 775 774 773 771 769 767 766 765 765 764 762 760 759 758 757 756 755 754 754 753 752 751 750 750 749 749 748 748 747 746 746 745 745 744 743 743 743 744 746 747 748 750 753 755 759 763 766 768 772
813 815 816 814 810 808 805 802 801 801 799 798 799 799 798 797 795 795 795 795 792 790 789 789 787 785 785 785 784 783 781 779 778 777 776 775 773 771 770 769 767 765 764 762 761 760 759 757 755 754 753 751 751 750 750 749 749 747 746 746 746 745 745 744 744 743 742 742 742 742 741 741 741 742 743 745 746 748 750 752 754 757 762 766 770 773
813 816 816 812 812 813 808 803 801 802 800 798 798 796 795 795 794 794 795 793 791 790 788 788 787 785 784 784 782 781 779 777 777 775 773 772 770 768 766 764 762 761 760 758 756 756 755 753 751 749 748 746 745 745 745 744 743 742 741 741 741 741 740 740 739 738 738 738 739 739 739 739 740 741 743 745 746 748 750 751 753 757 762 766 770 774
815 817 815 812 812 813 809 803 801 801 799 798 798 795 794 794 793 792 793 791 789 788 786 785 784 783 782 780 779 778 776 775 774 772 770 768 766 764 762 759 757 756 755 754 752 751 750 749 747 745 743 741 740 740 740 738 737 737 736 736 736 736 736 735 735 735 735 735 736 737 737 738 739 740 742 744 746 748 750 752 754 758 762 766 769 772
815 816 813 813 812 810 806 803 801 800 798 796 795 794 793 793 792 790 790 789 787 786 784 782 781 780 779 777 776 775 773 771 769 768 767 765 763 761 758 756 754 752 751 749 748 747 746 744 742 740 739 737 736 736 735 733 732 732 731 731 731 731 731 730 731 731 731 732 733 734 735 737 738 740 742 744 747 749 752 754 757 760 763 767 770 772
815 813 811 813 814 811 807 803 802 803 801 796 793 791 790 790 790 789 787 785 783 782 781 780 778 776 775 774 773 773 771 769 766 765 764 761 760 758 756 753 751 748 747 746 745 743 741 740 738 736 734 732 731 731 729 728 727 726 726 726 726 726 726 726 727 728 728 729 730 732 734 736 738 740 742 745 747 749 752 755 759 762 765 767 770 772
813 812 811 814 815 811 806 803 803 804 800 795 792 789 788 787 788 787 785 783 780 778 778 778 776 774 772 770 770 770 769 766 764 763 761 758 756 755 753 751 748 745 743 742 741 739 737 735 734 732 730 728 727 726 724 723 722 721 722 721 721 722 723 723 723 724 724 726 728 730 733 736 739 742 744 745 746 749 752 756 760 763 765 768 770 771
Wind_Speed
0 1 1 2 2 2 2 1 2 2 2 2 2 2 1 1 1 1 1 2 2 2 0 1 2 4 5 5 3 1 2 5 6 6 6 6 7 8 9 10 10 9 6 4 5 10 15 19 19 19 20 21 22 23 23 23 22 21 21 21 22 22 20 19 17 15 13 12 11 10 9 8 6 6 6 5 4 4 5 5 5 6 6 5 5 5
0 0 1 4 3 1 1 3 4 4 3 2 2 2 1 2 1 1 1 2 2 1 0 1 2 3 3 4 3 0 2 6 8 8 8 9 9 8 10 12 10 8 4 5 6 8 14 18 19 19 20 21 23 24 25 24 23 22 21 21 23 23 21 19 17 14 12 11 11 10 9 8 8 8 7 6 5 5 5 5 5 5 6 5 5 5
0 1 2 3 2 4 4 4 4 4 3 2 2 2 1 1 2 2 0 2 2 1 0 1 2 4 3 4 4 2 4 4 5 8 9 10 11 9 11 11 9 7 6 8 8 9 13 17 19 20 21 23 24 25 26 25 24 23 23 23 23 23 22 20 17 14 12 11 9 8 8 8 8 8 7 6 5 4 4 5 5 5 6 6 6 6
0 1 1 2 5 5 4 3 4 3 2 1 2 2 1 0 1 1 0 2 2 1 1 1 3 4 2 2 2 2 3 3 1 4 5 6 10 10 10 10 10 10 10 10 10 9 11 14 18 21 22 24 24 25 27 26 25 25 24 24 25 25 23 21 18 15 13 11 10 8 7 8 7 8 7 5 4 4 5 5 5 5 6 7 8 9
2 1 4 4 4 3 3 3 4 3 2 1 2 3 2 1 2 2 1 3 1 1 2 2 4 2 1 0 2 1 3 4 3 2 3 5 7 7 6 8 10 11 11 11 11 10 12 15 19 22 23 25 26 27 29 30 28 27 26 25 26 26 25 22 20 18 15 14 13 10 9 8 7 7 7 7 6 6 6 6 5 5 7 8 9 9
2 0 3 4 2 2 3 3 4 4 2 1 4 6 4 3 3 2 1 2 1 0 3 3 4 1 1 1 2 1 2 2 1 2 3 2 3 5 7 8 9 10 10 10 12 12 13 15 17 19 23 25 28 31 32 32 30 29 27 26 27 27 26 24 22 20 18 17 16 14 12 11 8 8 8 8 8 8 7 6 5 5 7 8 8 8
1 1 2 3 3 3 2 2 3 4 3 1 3 6 5 3 3 3 1 0 1 2 2 2 3 3 1 1 1 2 4 2 2 2 1 1 1 4 7 8 8 10 10 10 11 12 13 15 15 18 23 27 31 33 33 32 31 30 28 27 28 28 27 25 24 22 20 19 17 15 14 13 12 11 9 8 8 8 7 6 5 5 6 7 7 7
2 2 2 2 3 3 1 1 3 6 4 1 1 4 7 5 4 4 2 1 1 1 1 1 1 3 4 1 1 2 4 3 2 3 4 1 2 3 6 7 9 11 11 10 11 13 13 15 18 21 24 30 34 33 32 32 32 31 29 28 29 29 28 27 25 24 22 21 19 16 15 15 14 12 10 8 9 9 8 7 6 6 7 7 7 7
2 2 1 2 1 1 2 0 5 8 3 1 1 4 4 4 3 3 2 1 1 2 3 1 1 3 4 1 0 1 2 2 3 6 7 5 3 4 6 8 9 10 11 12 13 13 14 17 21 22 22 27 32 31 32 34 33 32 30 30 30 30 29 28 27 26 24 22 20 17 16 16 15 13 10 10 11 10 10 9 8 7 7 8 8 8
1 2 2 3 2 2 1 1 4 6 1 2 5 5 5 5 5 3 2 2 2 2 5 1 1 3 3 1 1 1 1 2 4 6 7 6 6 6 6 6 8 9 10 11 12 12 14 16 17 17 16 21 28 29 30 32 32 32 31 30 31 31 31 30 29 28 26 23 21 18 17 17 17 15 12 11 12 12 11 11 10 9 8 9 8 8
2 1 1 2 2 1 3 3 1 1 3 4 5 4 5 4 3 2 2 1 1 3 4 1 1 3 3 1 0 1 1 3 5 5 6 7 9 10 9 8 7 7 8 9 10 10 11 10 11 13 15 20 25 24 26 29 31 32 32 32 33 33 33 32 31 30 28 26 23 21 19 18 18 17 14 13 14 14 13 13 12 11 10 10 9 8
2 1 2 2 1 2 4 3 3 2 3 3 2 2 2 1 1 1 1 1 3 4 1 3 1 3 5 1 2 1 3 4 4 5 7 9 10 11 11 11 9 8 7 6 8 9 9 9 11 15 17 19 22 23 26 30 31 32 33 32 33 33 34 33 32 32 30 28 26 23 21 19 19 20 18 16 16 15 15 14 14 13 12 11 10 10
3 2 1 2 1 3 2 3 3 1 2 2 2 2 2 2 1 1 1 1 4 3 1 2 1 2 4 3 1 2 3 3 3 4 6 9 10 11 11 11 9 8 6 4 5 7 8 9 10 14 16 17 20 23 27 30 32 33 33 33 33 34 34 34 34 33 32 30 28 26 24 22 21 22 21 19 17 16 16 15 15 15 14 14 13 12
3 1 1 1 1 1 2 4 2 2 3 4 3 3 4 2 1 2 2 1 3 2 2 1 1 2 3 1 2 3 3 4 4 4 5 7 9 9 9 9 8 7 5 1 3 5 7 7 8 11 12 12 14 17 21 26 29 30 31 32 32 33 34 34 35 34 33 32 30 27 26 24 23 23 23 22 20 18 17 16 16 15 15 15 15 14
3 2 0 1 0 1 2 3 0 2 3 2 1 2 3 3 2 3 3 3 3 0 2 0 2 2 2 1 2 3 4 4 4 5 5 6 6 6 6 7 9 8 7 3 1 3 5 6 8 10 10 10 11 13 17 22 26 27 27 27 28 29 30 32 33 34 34 33 31 29 27 26 24 24 24 24 22 20 19 17 16 16 15 14 14 14
2 3 2 2 1 1 1 1 1 2 3 1 0 1 2 3 3 1 1 1 1 0 1 2 2 1 1 1 2 2 2 3 4 5 5 5 6 5 5 8 9 9 9 7 4 3 3 6 8 9 10 11 11 13 16 20 24 26 25 23 25 26 28 30 32 33 33 33 32 30 28 27 26 25 25 25 24 22 20 18 17 16 15 14 14 14
1 2 2 2 1 1 1 1 1 1 1 2 2 3 1 0 3 3 1 2 1 3 2 1 2 2 1 1 1 1 2 3 4 4 4 6 6 6 8 9 9 10 10 9 8 6 4 3 6 8 10 12 13 14 17 21 24 26 25 23 23 25 27 28 30 31 32 32 32 31 30 28 27 26 26 27 26 23 21 19 18 17 16 15 15 15
2 3 1 1 1 1 1 1 3 2 0 2 2 3 3 1 2 2 1 2 0 4 2 1 3 3 3 2 3 3 2 1 2 3 3 5 7 7 8 8 9 10 9 10 11 10 8 6 3 5 8 10 14 17 19 22 25 27 28 27 25 26 28 28 28 30 31 32 32 32 31 30 29 29 28 28 27 25 23 21 20 19 18 17 16 17
1 3 2 0 2 2 2 1 2 3 2 1 1 2 2 2 2 2 2 1 2 3 1 2 2 2 4 4 6 8 6 3 1 2 3 5 6 6 6 7 9 10 9 10 11 10 10 10 8 5 5 4 7 12 17 20 22 24 27 27 26 28 29 28 28 28 29 31 32 31 32 31 30 30 29 29 28 26 24 23 22 21 20 19 18 18
0 2 2 1 1 3 2 1 2 1 3 2 2 2 1 2 1 1 1 1 3 3 1 2 2 3 4 3 7 10 8 4 2 0 2 4 4 4 4 6 7 8 9 9 10 10 11 12 13 11 10 8 4 5 9 13 16 19 22 24 25 27 27 26 27 27 28 30 31 30 30 30 30 30 30 31 30 29 27 26 24 24 22 21 20 20
0 1 2 1 1 3 1 0 1 1 2 1 2 2 1 1 0 1 1 1 1 2 2 2 3 3 1 1 5 9 7 4 2 0 2 3 4 4 4 5 6 7 8 8 9 10 10 13 16 15 14 15 12 7 3 5 9 12 14 17 20 23 23 24 25 26 27 29 30 29 29 31 31 31 31 32 32 32 30 28 27 26 24 24 23 22
0 1 2 2 3 3 1 2 1 1 1 1 2 2 2 2 1 3 3 1 0 1 2 2 3 2 2 1 3 4 4 3 2 1 1 3 3 4 5 5 5 6 7 8 8 8 9 12 14 16 17 19 19 16 11 6 3 2 4 8 12 16 18 20 23 25 27 28 29 30 31 32 32 32 33 34 34 34 33 31 30 28 27 26 25 24
1 1 1 3 4 3 2 2 2 2 1 1 1 0 1 1 2 4 5 2 2 1 1 1 2 1 2 1 2 1 1 2 1 1 2 2 2 3 4 5 5 6 6 7 7 8 9 11 13 15 17 18 18 19 18 16 15 13 7 4 6 9 12 15 18 22 25 27 28 30 31 33 35 35 35 34 34 35 36 35 33 31 29 28 27 26
1 1 1 2 3 3 1 0 0 1 1 1 1 1 0 1 0 2 2 1 2 3 3 2 3 2 2 1 0 1 2 1 1 2 4 4 2 2 4 4 5 6 6 7 7 7 8 10 12 13 14 14 14 16 18 20 22 22 18 13 9 6 6 9 13 15 19 23 26 28 30 33 35 37 37 35 34 35 36 36 35 33 32 30 28 28
1 1 1 2 3 3 2 1 2 2 1 1 1 1 1 0 3 1 1 1 3 2 3 4 4 2 2 1 1 1 1 3 3 3 3 4 3 3 3 4 4 5 6 7 8 8 9 10 11 11 11 11 11 12 14 16 18 20 19 18 16 14 11 6 5 8 13 17 22 26 28 31 34 36 38 37 35 34 34 35 34 34 33 32 31 30
2 0 1 3 4 5 4 4 2 1 0 1 1 1 0 1 2 1 1 2 3 1 2 4 3 1 2 2 1 1 2 4 4 3 3 3 3 3 3 3 3 4 5 7 7 8 8 8 9 10 11 11 11 11 11 11 12 13 13 14 15 16 16 14 10 5 6 12 17 22 25 29 31 34 36 37 36 34 32 32 33 33 34 34 32 31
1 0 2 4 6 6 5 4 1 1 2 3 2 2 1 1 0 1 1 3 3 2 3 3 1 1 5 7 4 3 4 5 5 4 4 3 2 2 2 2 3 3 4 5 5 5 6 6 8 10 11 11 12 12 12 11 11 11 12 13 16 18 19 19 17 13 8 7 12 17 22 26 29 32 33 35 36 34 32 31 32 33 33 34 34 33
1 1 1 2 5 5 3 3 1 0 5 5 5 5 3 2 2 3 4 3 2 2 4 4 3 5 6 8 7 6 5 5 5 6 5 3 2 2 2 1 3 3 3 3 4 3 4 4 5 6 7 8 9 9 11 11 12 14 15 17 20 22 23 22 20 18 14 10 8 12 18 22 26 29 31 32 33 33 32 32 32 32 33 34 34 33
1 2 2 2 4 3 3 4 2 2 5 5 5 7 6 5 5 6 7 4 6 7 7 4 8 8 5 6 8 7 8 9 8 6 4 2 2 3 3 2 3 3 2 3 3 3 3 3 3 4 4 5 6 7 8 8 10 13 15 18 22 23 24 24 23 21 18 14 11 10 12 16 21 25 28 31 32 32 31 31 31 31 31 31 30 30
1 2 2 3 4 4 4 5 3 4 5 5 7 8 7 7 8 8 8 5 7 10 5 3 8 9 5 5 4 3 5 6 4 2 2 2 3 4 4 3 2 2 2 2 3 3 3 3 3 4 4 5 6 8 8 9 10 13 14 16 20 21 23 24 23 22 20 16 13 12 11 12 15 18 23 27 30 32 32 30 29 28 29 29 29 29
1 2 1 1 4 5 5 6 6 7 8 9 10 7 5 7 8 8 7 3 4 7 4 4 7 7 4 4 2 1 1 3 3 4 4 3 3 4 4 3 2 1 2 2 2 3 3 3 4 5 7 8 8 9 9 10 11 12 14 15 17 19 21 23 24 23 22 20 17 15 13 11 12 14 17 21 25 28 29 28 27 27 27 28 29 31
1 1 1 0 5 5 4 8 10 7 8 11 9 6 7 9 6 5 5 5 6 7 6 7 8 6 5 4 2 1 3 6 7 5 4 2 2 4 4 3 2 2 2 3 3 4 4 5 5 6 7 8 9 10 10 10 11 12 13 14 16 18 20 22 22 22 22 22 21 20 17 14 12 12 13 16 20 23 25 26 26 26 26 28 29 32
1 2 1 1 4 4 3 4 5 5 7 8 5 5 10 12 8 6 6 6 8 9 7 6 5 3 1 3 5 7 8 8 5 3 2 2 3 4 4 2 1 1 2 2 3 4 5 5 6 6 7 9 9 10 10 11 13 14 16 17 18 19 20 20 20 21 22 22 22 21 20 18 15 12 12 13 16 20 23 24 25 26 27 28 30 33
1 2 2 2 2 3 1 2 2 4 7 4 1 1 7 9 9 10 8 5 5 6 5 5 2 3 2 2 5 6 6 4 1 1 1 2 3 5 6 4 3 1 0 1 2 3 3 4 5 7 9 10 11 12 12 13 15 17 19 21 21 21 21 20 18 18 20 22 23 21 21 19 16 14 12 11 13 17 21 24 25 27 28 29 31 35
2 3 2 1 2 2 1 1 3 6 4 1 2 2 4 5 7 8 6 3 3 4 7 7 3 2 1 1 0 2 4 3 0 2 2 3 4 5 5 5 5 3 2 3 3 4 5 5 7 8 10 11 13 14 14 15 17 18 18 19 20 21 21 20 17 16 18 21 22 21 20 19 17 15 13 11 11 14 18 22 25 27 28 29 33 36
3 3 2 1 2 1 0 3 4 3 4 4 3 2 2 3 3 3 2 4 7 5 5 4 2 0 2 3 3 3 2 1 1 2 2 3 4 5 5 5 5 5 4 5 4 5 7 9 10 12 13 15 15 15 15 16 17 17 17 17 19 20 19 18 16 16 17 20 20 19 18 17 16 15 12 11 11 13 18 22 25 26 27 30 33 35
4 3 2 2 3 2 2 4 3 4 6 5 2 3 2 2 2 2 1 3 6 6 4 4 4 3 2 3 4 2 1 0 1 2 3 3 3 3 4 6 6 6 6 7 7 9 13 15 16 17 18 18 17 16 16 18 19 18 15 15 16 17 16 15 15 16 17 19 18 17 17 16 15 14 12 12 13 15 19 22 25 26 27 30 32 33
2 1 2 3 2 1 2 3 3 4 4 1 0 2 2 2 2 3 2 2 4 5 4 5 6 6 5 5 4 2 2 1 2 1 3 4 3 3 3 5 6 7 8 10 12 15 17 19 19 18 18 18 19 19 19 20 21 19 15 14 15 16 15 13 15 16 17 17 17 17 17 16 15 14 13 14 14 16 19 23 25 26 27 29 31 32
3 1 1 2 2 1 3 4 3 3 1 0 1 3 3 1 2 2 3 2 2 4 5 5 7 7 6 5 4 2 2 2 2 2 4 6 6 5 6 7 9 10 11 13 15 16 18 21 22 20 20 20 21 21 21 22 22 19 15 15 16 16 15 15 16 17 16 17 19 19 18 17 16 14 14 15 16 17 20 23 25 26 27 28 29 29
3 1 1 3 3 2 3 3 3 2 1 0 2 4 3 0 3 3 5 2 2 5 5 5 7 7 4 2 1 1 2 3 3 5 6 5 5 5 6 8 10 13 14 15 16 17 19 20 21 20 20 21 23 23 23 24 22 18 17 18 17 15 16 19 19 18 18 19 20 19 18 17 17 15 15 16 16 17 21 24 25 26 27 28 29 29
1 0 0 2 2 2 3 3 3 2 1 0 3 4 2 1 3 4 4 1 4 7 6 4 6 6 3 1 1 1 3 4 5 7 7 6 7 8 8 10 12 13 15 16 17 18 18 17 18 19 21 23 25 25 26 25 22 18 18 18 16 17 21 24 22 21 21 21 20 19 19 18 16 16 15 15 16 18 21 24 25 26 27 29 31 31
0 1 1 1 1 1 2 2 3 2 0 1 3 3 2 2 2 2 3 2 4 7 6 4 5 5 3 3 3 3 5 6 6 7 8 9 9 9 10 12 12 13 14 16 18 19 17 16 17 19 22 25 26 25 26 26 22 19 19 18 19 23 27 26 24 22 22 22 20 19 19 18 17 15 14 15 17 18 19 20 22 24 26 27 29 29
0 1 1 1 1 1 1 2 3 2 1 2 5 4 2 1 2 3 5 5 5 5 6 5 4 4 3 4 4 4 5 6 6 6 7 8 9 9 12 13 13 14 15 15 17 17 17 17 17 19 21 24 24 25 26 24 21 19 19 20 24 29 29 26 24 22 20 20 19 18 18 18 16 14 14 16 18 19 19 19 21 24 26 27 27 25
1 1 2 1 1 1 2 2 1 0 2 2 5 5 3 2 3 5 7 7 6 6 6 5 4 4 4 4 5 5 5 6 8 8 8 9 9 10 12 13 15 17 17 16 17 17 17 18 18 19 20 20 22 24 24 23 21 19 20 23 29 30 28 25 23 20 18 18 18 17 17 16 13 14 16 18 19 20 21 23 25 26 26 27 27 23
1 1 2 3 2 3 4 4 4 5 3 2 3 4 5 6 7 8 7 6 6 6 5 5 5 4 3 5 6 6 7 8 9 9 10 11 11 12 13 14 17 19 19 19 19 18 17 19 20 19 19 19 21 22 23 22 20 19 22 27 30 28 25 24 22 19 18 17 17 16 16 13 13 16 19 20 22 24 27 28 28 27 24 24 24 23
2 1 1 3 3 4 5 5 4 6 7 6 4 4 5 7 8 8 6 5 6 7 7 6 7 7 6 6 6 7 8 10 11 11 11 12 13 13 14 16 18 18 19 19 19 19 19 19 19 18 18 19 21 22 22 22 21 21 24 26 26 25 24 23 21 20 18 17 16 15 14 12 13 17 20 23 26 29 31 32 31 30 26 23 20 18
1 1 2 4 4 4 4 3 6 8 10 10 10 8 7 7 6 5 5 5 6 8 8 7 8 8 8 7 8 9 10 10 11 12 11 11 13 14 14 16 17 18 18 20 21 21 19 18 18 18 19 20 20 20 20 21 21 22 24 24 23 23 23 22 22 21 18 17 15 13 12 14 15 17 22 26 29 32 33 33 33 33 30 27 24 21
0 1 3 4 5 5 6 8 10 12 11 10 9 8 7 8 9 7 6 7 8 8 9 9 9 8 8 8 9 10 11 11 11 11 11 11 12 12 13 16 19 19 20 21 22 21 19 18 19 20 20 21 20 19 19 21 22 22 23 23 22 21 22 24 24 21 18 16 14 12 13 16 19 22 24 27 31 34 34 33 33 33 30 28 25 23
0 2 3 4 5 7 8 8 9 11 10 9 9 9 7 7 10 10 9 9 10 11 11 11 11 10 10 10 10 10 11 12 12 13 13 13 12 13 15 19 21 21 21 22 22 21 20 20 21 22 23 23 22 21 20 22 23 23 22 22 22 22 24 25 24 22 20 16 14 15 16 19 24 27 29 30 31 31 30 29 28 27 26 23 21 19
2 5 5 4 6 7 7 8 9 10 10 10 12 15 13 9 9 11 12 12 13 13 12 12 14 13 12 11 10 9 11 13 14 14 14 13 13 16 19 21 22 23 23 22 21 21 22 22 22 22 23 23 23 23 22 23 23 23 22 22 21 21 22 22 22 21 19 16 16 18 20 22 25 28 31 33 32 29 25 23 23 23 24 22 19 17
3 5 5 5 7 8 9 11 10 9 10 11 13 16 16 12 11 13 14 14 15 14 12 11 12 13 12 13 12 11 11 13 16 16 14 14 16 19 21 21 21 22 23 22 21 21 22 22 22 23 25 25 24 23 23 24 24 22 20 20 19 17 18 19 18 17 16 17 19 23 26 27 27 28 29 30 31 28 24 21 20 21 22 21 18 15
Wind_Direction
330 150 178 223 247 269 218 182 105 123 128 103 124 158 150 204 248 268 285 16 5 285 309 85 293 288 282 277 250 139 123 175 188 191 198 199 201 204 208 215 219 223 220 183 190 201 202 205 205 200 198 197 195 195 194 192 192 190 187 184 184 185 185 187 186 181 178 175 174 175 175 176 170 169 165 150 135 109 95 90 82 77 72 65 62 56
322 116 212 234 234 230 160 148 123 114 116 116 158 178 188 224 251 357 350 1 9 281 116 72 291 277 277 278 272 297 195 195 190 190 196 198 204 209 212 219 220 217 205 191 197 193 197 203 203 201 199 198 197 195 195 194 194 191 189 188 185 185 186 190 190 185 184 182 176 174 175 176 172 171 165 149 138 122 113 106 97 91 83 75 74 70
14 248 247 235 169 101 85 128 133 115 120 129 161 199 204 218 279 300 289 348 1 301 274 81 299 287 279 282 276 242 217 212 193 198 204 197 198 205 212 218 219 215 208 204 203 190 192 197 199 200 201 201 199 197 197 196 194 191 189 189 188 187 188 191 192 190 190 187 181 182 184 181 175 173 170 158 147 136 128 115 99 90 82 76 84 90
256 206 190 138 140 123 90 124 133 113 126 151 166 213 219 105 283 249 160 344 4 8 340 309 291 289 282 260 261 275 273 291 279 210 215 208 206 209 211 214 210 208 208 207 205 193 187 190 195 200 201 201 200 199 198 196 194 190 189 191 190 189 189 190 191 192 193 187 183 188 188 186 181 175 171 163 149 139 131 116 98 82 72 77 93 102
252 123 118 119 141 150 124 140 158 153 163 199 197 213 213 182 227 248 321 319 311 102 42 322 275 262 334 213 171 14 319 294 321 290 229 219 222 228 233 227 216 211 208 205 203 193 187 192 196 197 198 198 199 201 200 197 195 192 190 193 193 190 189 189 189 192 193 185 182 184 179 182 183 174 172 165 152 140 131 120 105 85 79 91 101 103
281 73 145 140 134 160 152 168 197 186 176 221 215 212 206 185 190 208 314 323 271 144 50 352 284 241 34 307 171 35 317 254 268 285 258 242 225 230 238 233 227 226 220 210 205 197 194 197 192 190 194 196 199 204 202 198 196 193 193 195 194 191 189 189 189 193 192 185 183 182 177 179 181 179 182 177 161 147 137 128 115 95 95 105 105 101
9 75 146 140 127 150 169 213 212 185 168 203 215 192 177 157 157 165 173 240 304 318 36 3 285 270 306 309 99 348 313 283 248 232 111 23 233 216 227 228 227 229 227 220 213 206 201 196 189 188 192 195 201 204 202 198 197 194 195 197 194 192 191 190 190 192 192 186 185 186 186 188 189 189 190 182 165 152 145 139 124 107 110 115 108 103
149 113 69 80 107 138 190 268 193 179 168 167 150 149 151 151 163 161 154 182 306 311 303 50 312 276 275 265 86 313 296 311 324 2 40 35 244 237 240 236 231 228 223 219 217 211 204 196 193 194 194 197 202 204 200 198 197 194 196 198 196 193 193 192 191 192 191 188 186 189 194 197 198 197 192 181 170 162 156 151 137 117 114 119 114 109
159 187 182 158 139 217 244 205 168 179 180 17 113 125 130 126 127 133 130 132 59 287 250 144 112 262 267 252 95 321 292 330 359 349 344 333 300 274 259 252 251 248 236 223 219 213 205 200 199 197 193 196 201 203 200 199 197 195 196 198 197 194 194 194 193 193 193 192 189 190 198 204 205 205 198 186 180 173 166 160 151 133 122 124 121 114
217 239 208 181 225 253 251 83 171 183 177 128 137 104 83 77 71 77 96 117 102 266 258 251 63 266 270 268 293 33 63 350 338 330 321 323 322 306 289 275 262 261 256 241 233 222 211 205 199 192 185 192 201 203 200 199 197 195 197 199 198 196 196 196 195 195 195 196 194 194 201 209 213 212 204 193 186 179 173 167 161 150 139 136 132 123
294 276 194 197 239 187 107 75 98 155 112 144 147 102 85 71 57 65 50 71 165 241 255 336 22 254 270 302 87 26 19 302 304 310 316 326 330 326 320 312 294 277 269 254 245 234 217 203 189 184 184 192 200 201 198 199 198 197 198 200 199 198 198 198 197 197 198 199 199 200 204 212 218 220 213 201 193 186 181 176 171 164 155 151 147 140
327 200 196 260 232 131 116 89 51 51 112 151 156 115 122 68 61 102 66 105 230 244 267 7 351 225 246 240 102 16 300 272 271 289 313 324 327 325 321 319 318 305 283 254 236 220 201 186 180 183 186 188 194 195 195 198 199 198 200 202 201 200 200 199 199 199 201 202 203 204 208 214 221 225 223 214 205 196 190 185 179 173 167 164 161 156
308 219 280 303 193 155 161 119 92 95 165 189 158 140 211 247 95 237 248 190 237 255 30 10 321 220 243 266 13 351 311 301 291 287 305 314 314 318 321 322 325 317 298 256 220 201 185 179 179 183 183 182 187 192 194 197 199 199 201 203 202 201 202 202 201 202 203 206 206 207 210 214 221 228 229 225 218 209 201 193 187 181 177 175 172 169
299 274 29 284 156 116 212 198 184 187 189 198 177 168 216 216 165 233 226 244 261 261 43 9 281 248 246 276 6 337 324 326 321 314 315 314 311 313 320 330 338 331 319 280 192 185 179 174 172 180 183 179 182 186 190 195 199 201 203 205 204 203 204 204 203 204 205 208 210 210 213 216 221 228 231 230 226 220 212 204 197 192 188 185 181 176
286 280 121 195 53 52 240 235 230 111 153 194 165 163 206 198 209 242 226 239 258 190 72 111 211 229 229 33 355 323 330 342 350 347 335 332 324 313 326 358 3 355 354 8 126 153 158 163 162 167 173 176 178 180 186 194 199 204 207 208 206 204 205 206 205 206 207 210 212 214 217 220 225 230 233 234 233 228 221 213 207 202 197 193 188 181
269 268 280 308 288 122 272 261 97 118 144 120 45 173 209 200 178 221 294 278 282 225 136 195 228 255 284 338 330 327 5 26 15 358 350 350 341 336 8 24 19 12 12 13 29 84 122 149 156 159 164 170 175 179 187 194 200 205 210 212 209 208 209 209 208 208 210 212 215 217 220 224 229 233 236 236 236 235 230 223 217 211 205 200 193 185
230 263 299 320 267 85 330 215 138 268 192 133 185 196 175 96 124 130 122 54 5 248 200 174 229 222 209 223 166 76 45 53 21 3 7 1 356 11 25 24 21 23 22 22 28 36 45 110 144 153 162 169 174 180 190 197 202 207 212 215 213 211 213 214 213 212 213 214 216 219 222 226 231 235 237 237 239 239 236 230 224 218 212 205 195 188
243 261 325 314 237 55 326 203 84 28 6 144 194 170 128 100 93 124 200 78 137 243 218 179 227 206 196 190 154 164 181 126 21 5 18 17 17 27 27 20 20 25 28 31 36 38 32 34 78 138 157 175 183 188 195 201 205 209 213 216 215 214 216 217 217 217 217 217 219 220 222 226 230 234 237 238 240 242 240 236 231 225 219 211 201 194
257 265 316 9 244 341 348 220 108 65 32 1 184 122 123 216 192 157 193 169 202 236 222 190 225 226 219 195 163 178 185 165 136 1 36 40 30 26 24 22 23 25 27 31 35 39 39 32 32 66 107 143 185 195 200 204 206 210 215 217 218 220 220 220 220 221 221 221 223 223 224 227 230 234 236 237 239 241 242 241 238 232 225 217 209 201
297 271 284 133 258 319 354 251 226 134 77 61 132 123 45 273 235 182 179 203 221 227 213 197 207 218 220 187 166 177 178 170 175 62 55 53 31 19 22 24 28 30 28 31 34 38 43 41 39 49 70 84 107 185 200 204 207 211 218 222 224 226 226 224 224 225 225 226 228 227 227 229 231 232 234 236 238 241 243 243 242 238 231 223 216 209
97 251 266 322 317 277 276 18 281 188 120 143 179 179 171 114 330 237 172 88 236 210 181 200 222 211 176 162 176 169 162 170 194 287 28 37 22 18 24 25 35 40 36 34 35 37 41 44 46 48 58 73 82 89 123 193 208 212 222 229 231 232 230 228 227 228 229 230 232 231 231 232 233 233 233 234 236 240 243 243 242 241 236 228 222 216
86 195 248 304 306 277 314 30 331 286 286 260 228 221 194 159 189 223 210 159 277 232 181 186 230 218 97 143 199 153 144 170 197 258 350 36 20 14 21 24 32 41 43 40 38 40 40 41 45 46 49 58 64 66 70 85 116 156 234 251 248 240 235 233 232 233 235 235 235 235 234 235 235 235 235 234 235 238 241 242 241 241 239 232 226 222
132 136 231 269 281 287 323 342 290 272 261 247 284 273 178 169 203 232 232 200 153 167 113 128 246 240 96 142 228 234 225 207 200 203 155 102 53 31 33 28 32 39 43 43 44 46 45 43 45 45 46 48 50 53 56 60 64 65 53 354 298 268 252 244 239 238 239 239 239 238 238 238 238 237 237 237 236 238 240 241 241 240 240 236 231 226
151 156 265 274 288 300 311 17 250 217 167 175 41 60 225 248 201 252 257 173 181 178 145 184 236 194 133 93 204 241 247 211 179 176 152 133 119 79 54 37 33 37 40 44 47 48 50 50 49 48 47 46 44 46 46 49 55 59 58 50 30 356 303 266 251 247 244 242 242 242 241 241 241 240 240 241 240 240 240 241 240 239 239 238 234 228
253 225 238 276 294 289 265 218 214 191 162 254 336 55 272 87 94 115 132 149 220 202 165 224 240 178 135 84 71 136 182 156 146 156 154 140 131 109 77 53 41 36 39 42 41 41 42 45 47 48 48 47 45 44 44 45 48 52 52 50 44 37 29 6 298 266 256 251 248 245 244 244 245 244 243 245 245 243 242 242 241 239 237 237 234 229
252 192 200 246 260 254 246 251 261 266 225 280 278 221 230 86 112 186 175 198 230 200 165 223 248 115 139 158 113 107 179 166 148 150 163 142 122 105 83 66 53 48 50 47 42 41 39 37 39 41 42 43 43 43 43 43 43 45 43 39 36 35 35 33 25 356 292 267 256 251 249 249 249 248 247 248 249 249 247 244 243 241 238 236 233 228
169 219 228 236 250 255 257 261 317 1 275 272 272 240 200 81 80 133 165 212 211 185 197 213 257 215 189 184 176 180 197 188 161 157 164 154 136 119 91 67 59 57 54 52 50 49 46 42 38 35 33 32 31 31 31 30 29 28 25 23 23 23 23 24 23 21 5 309 271 260 257 256 255 254 253 253 253 253 251 248 246 243 240 238 234 228
114 264 222 211 248 257 268 265 156 188 264 266 269 253 223 193 171 174 214 207 129 215 239 195 189 223 204 191 195 195 199 202 188 182 177 164 157 147 128 102 82 76 66 59 61 58 56 53 43 37 35 32 29 27 25 22 18 16 14 13 13 13 13 12 10 11 10 357 315 279 268 265 264 262 261 260 259 257 254 251 250 247 244 240 234 229
147 256 197 192 248 235 220 248 221 216 253 252 249 251 240 223 203 208 227 192 163 230 251 178 186 214 210 206 210 198 196 201 194 183 176 165 171 168 160 144 107 87 72 58 53 48 45 41 34 29 25 23 25 23 21 17 12 10 9 8 6 6 5 3 1 0 358 354 343 321 299 283 274 269 267 265 263 261 258 256 253 248 243 237 230 228
210 260 179 191 257 248 237 247 215 214 251 252 244 242 238 238 231 231 240 210 200 238 261 168 207 222 213 220 230 201 193 196 181 172 200 205 185 172 167 157 132 109 80 55 37 24 19 15 11 7 4 9 11 8 7 6 3 2 1 1 0 359 356 354 353 351 348 344 336 330 324 308 291 280 271 266 264 262 260 258 252 245 238 232 228 225
237 271 122 164 265 262 258 264 243 228 245 254 253 247 235 240 239 239 244 218 219 252 251 201 230 241 232 238 267 30 138 173 185 205 216 211 183 176 180 172 151 117 69 47 24 12 9 4 0 358 359 359 355 354 355 354 353 353 353 352 351 349 348 346 344 342 341 338 333 329 324 315 303 289 276 270 265 260 256 253 248 242 236 230 225 221
208 247 96 202 267 257 240 255 260 261 263 258 252 244 239 235 223 224 226 196 209 235 229 218 235 247 236 228 234 199 183 192 203 206 208 217 206 196 193 176 147 87 45 30 16 11 7 3 0 356 352 348 345 344 345 344 342 342 343 342 340 338 338 338 336 334 333 333 334 332 326 318 309 292 277 270 264 258 252 247 243 237 231 226 220 215
185 237 208 215 265 264 230 251 282 304 286 264 234 222 239 238 229 229 227 208 211 219 223 228 239 269 264 201 209 210 198 198 201 186 196 224 215 214 220 214 173 100 46 19 5 359 355 351 347 341 336 335 336 336 335 335 333 332 333 333 332 332 332 330 328 327 327 327 329 328 325 321 314 298 280 267 259 254 249 242 236 231 227 222 216 210
185 236 242 213 248 266 294 359 323 265 259 261 106 219 249 250 251 249 249 248 231 230 264 277 288 358 352 220 227 213 179 163 150 121 233 236 212 222 237 241 241 244 14 28 1 344 341 335 326 324 324 326 328 328 326 326 325 325 328 330 329 329 327 323 321 321 321 322 322 322 321 320 314 304 292 274 255 247 243 237 233 231 227 220 212 205
187 206 217 203 228 269 358 12 245 244 251 311 1 300 261 262 267 262 268 334 348 303 297 297 305 343 244 204 313 82 104 92 263 225 226 220 214 231 244 248 253 263 307 354 347 331 328 327 319 316 316 317 320 320 317 316 318 320 323 325 325 324 321 318 315 313 314 315 315 314 316 317 314 308 298 280 258 242 236 233 231 230 226 217 208 202
186 178 177 185 198 216 204 196 215 276 317 303 305 342 300 290 302 269 255 36 20 343 311 303 306 6 144 121 77 69 77 36 261 198 169 186 208 230 245 256 261 267 299 333 340 324 318 317 313 309 308 309 311 309 304 304 309 312 315 318 319 317 315 312 308 306 305 305 306 307 310 311 309 304 294 277 257 241 236 235 233 229 223 212 205 200
181 164 176 214 205 185 221 224 241 312 310 290 313 19 340 316 354 317 252 55 22 356 348 354 4 26 56 71 63 41 358 17 156 125 105 126 172 215 249 271 279 280 295 312 316 310 308 307 306 304 304 304 303 299 296 299 303 305 306 309 309 307 306 303 301 300 298 298 300 302 304 304 301 294 283 268 251 240 238 237 230 224 217 209 202 196
166 188 200 224 220 163 235 262 269 282 288 279 5 345 321 255 260 279 231 114 39 12 2 5 12 13 7 16 28 7 329 285 202 141 60 33 17 2 321 309 309 305 303 306 308 308 307 305 304 303 302 300 295 293 295 298 300 300 301 302 302 300 297 293 290 292 292 293 296 297 297 297 293 285 275 262 248 238 237 234 226 218 211 204 198 192
105 41 144 221 238 176 222 252 246 232 243 73 290 313 329 266 214 223 225 198 53 11 351 357 3 2 1 7 9 350 326 289 250 300 0 1 358 357 339 322 316 310 303 301 301 299 299 301 301 299 297 292 288 290 294 295 296 296 297 298 298 296 292 286 285 287 287 289 292 292 290 290 288 281 269 257 249 240 236 231 221 213 206 197 189 182
108 69 129 228 241 203 217 250 252 240 256 346 286 302 324 194 181 219 239 235 11 336 325 336 336 339 358 17 13 341 302 283 295 325 344 350 334 314 299 295 299 300 299 296 293 292 293 295 294 292 289 287 286 289 291 290 290 291 292 294 293 288 285 285 287 289 288 287 288 286 283 283 282 275 262 252 246 239 234 226 216 207 199 189 180 173
81 28 234 240 248 221 222 251 269 259 237 245 284 297 312 196 210 239 253 303 328 309 309 313 303 308 324 308 256 287 292 289 300 312 315 311 302 292 280 276 279 283 286 286 286 287 287 284 282 281 281 283 285 287 287 286 284 283 286 288 284 281 285 288 289 290 289 286 283 280 278 277 275 268 257 247 239 234 228 220 209 198 188 181 175 168
14 351 266 220 251 248 222 254 288 290 86 45 302 297 292 246 245 272 299 293 280 286 295 289 278 281 284 261 248 263 283 288 288 291 293 294 293 289 285 282 279 276 276 278 280 280 275 270 271 271 274 279 282 282 282 281 277 276 280 279 277 281 287 289 288 287 286 283 280 277 276 276 273 263 251 242 233 223 213 204 196 186 176 169 162 156
339 297 268 216 235 286 223 224 269 281 98 22 344 336 339 320 316 326 318 301 283 281 283 273 257 245 240 240 241 250 270 283 284 282 284 286 285 284 285 287 286 283 280 277 277 275 269 267 266 263 266 273 277 278 278 274 269 270 273 273 278 284 286 285 284 283 281 278 276 273 273 274 269 256 243 235 223 207 190 179 173 167 160 153 148 145
266 252 294 277 222 241 217 204 238 17 94 29 343 322 304 309 330 327 317 308 301 294 286 275 257 238 236 253 265 269 271 276 279 279 279 279 279 280 283 285 287 287 284 280 277 275 271 268 266 264 265 268 271 273 272 267 263 264 266 272 280 284 282 281 281 279 275 272 270 270 271 268 258 244 232 220 203 185 170 160 154 150 147 145 143 143
305 331 299 276 244 258 270 273 292 309 321 335 307 287 294 308 315 315 306 296 299 307 305 289 278 274 275 274 277 283 285 285 288 288 285 283 282 280 280 281 281 282 283 282 280 278 273 270 268 267 267 267 269 270 268 264 260 258 263 272 278 278 276 277 276 272 268 265 265 268 268 256 236 227 216 198 180 166 156 150 144 140 139 141 143 149
316 8 264 254 278 293 281 272 284 299 307 310 294 271 278 290 298 306 301 289 299 312 312 296 286 292 300 292 283 286 290 295 298 295 289 287 286 283 282 281 278 277 279 281 282 280 279 278 275 271 269 268 268 268 267 265 261 258 264 271 272 270 270 270 267 262 259 257 262 267 257 234 216 208 195 180 168 159 151 145 138 135 135 139 144 149
314 51 268 268 291 300 288 299 314 309 307 311 309 299 290 286 290 299 295 289 299 307 306 296 286 283 284 279 276 279 283 286 288 286 283 282 281 281 281 280 279 278 279 281 283 283 282 281 279 276 273 271 269 267 266 266 263 262 265 267 264 263 264 262 258 255 250 251 259 257 234 211 195 182 173 168 160 152 147 142 139 140 145 149 151 152
324 39 300 278 273 275 279 291 298 296 293 294 294 294 298 304 304 297 286 286 294 296 292 285 279 277 279 280 279 282 284 282 277 276 279 279 278 280 280 280 281 282 281 281 282 283 282 280 278 276 275 273 273 271 269 269 268 266 265 264 263 261 259 256 251 248 247 248 246 231 210 195 180 167 161 159 154 149 148 148 148 150 154 154 151 151
281 276 285 289 288 284 282 287 294 296 292 288 288 288 285 288 294 295 291 287 288 289 291 289 284 281 282 283 283 284 284 282 280 280 282 283 282 283 283 284 285 285 284 283 283 283 281 278 276 275 275 275 276 275 272 271 272 269 266 264 262 259 256 252 247 244 244 238 221 203 190 179 170 161 153 149 147 146 147 150 151 150 147 143 142 144
247 278 286 290 290 289 291 302 309 307 300 294 296 297 293 284 282 285 286 286 284 285 288 288 287 285 280 275 273 275 279 281 282 282 282 281 281 281 283 285 286 284 283 283 283 281 279 275 272 271 271 273 275 275 274 273 272 270 267 263 258 256 254 250 244 238 229 212 193 182 172 163 158 154 148 144 143 141 141 144 147 144 139 137 140 141
254 302 311 297 293 293 292 297 301 296 289 288 290 293 295 296 289 282 279 280 282 283 284 281 280 282 281 275 269 266 270 276 278 279 280 279 278 278 280 280 281 282 284 285 283 281 279 276 273 272 272 274 276 276 274 273 271 269 265 257 249 247 246 241 230 216 197 180 169 162 156 151 149 147 144 141 140 138 134 132 134 135 135 136 137 138